This is the latest recevied weather packets stored in our database for station/object WD7OO. If no packets are shown the sender has not sent any weather packets the latest 10 day(s).
| Time | Temp. | Humidity | Pressure | Rain* | Wind** | Luminosity | Snow |
|---|---|---|---|---|---|---|---|
| 1777295224 | 12.22° C | 88% | 1015.3 hPa | 0 mm | - | 131 W/m² | - |
| 1777294922 | 11.67° C | 88% | 1015.3 hPa | 0 mm | - | 121 W/m² | - |
| 1777294616 | 11.67° C | 88% | 1015.4 hPa | 0 mm | - | 104 W/m² | - |
| 1777294313 | 11.67° C | 88% | 1015.6 hPa | 0 mm | - | 99 W/m² | - |
| 1777294010 | 11.67° C | 89% | 1015.5 hPa | 0 mm | - | 98 W/m² | - |
| 1777293706 | 11.67° C | 89% | 1015.3 hPa | 0 mm | - | 110 W/m² | - |
| 1777293401 | 11.11° C | 89% | 1015.4 hPa | 0 mm | - | 98 W/m² | - |
| 1777293097 | 11.11° C | 90% | 1015.8 hPa | 0 mm | - | 88 W/m² | - |
| 1777292796 | 11.11° C | 90% | 1015.8 hPa | 0 mm | - | 86 W/m² | - |
| 1777292493 | 11.11° C | 91% | 1015.6 hPa | 0 mm | - | 92 W/m² | - |
| 1777292189 | 10.56° C | 91% | 1015.8 hPa | 0 mm | - | 88 W/m² | - |
| 1777291885 | 10.56° C | 91% | 1015.6 hPa | 0 mm | - | 81 W/m² | - |
| 1777291582 | 10.56° C | 92% | 1015.6 hPa | 0 mm | - | 78 W/m² | - |
| 1777291279 | 10.56° C | 92% | 1015.4 hPa | 0 mm | - | 72 W/m² | - |
| 1777290976 | 10.56° C | 92% | 1015.4 hPa | 0 mm | - | 68 W/m² | - |
| 1777290673 | 10° C | 92% | 1015.6 hPa | 0 mm | - | 64 W/m² | - |
| 1777290369 | 10° C | 93% | 1015.4 hPa | 0 mm | - | 60 W/m² | - |
| 1777290064 | 10° C | 93% | 1015.4 hPa | 0 mm | - | 55 W/m² | - |
| 1777289761 | 10° C | 94% | 1015.6 hPa | 0 mm | - | 51 W/m² | - |
| 1777289457 | 9.44° C | 94% | 1015.6 hPa | 0 mm | - | 43 W/m² | - |
| 1777289154 | 9.44° C | 94% | 1015.5 hPa | 0 mm | - | 36 W/m² | - |
| 1777288850 | 9.44° C | 95% | 1015.6 hPa | 0 mm | - | 28 W/m² | - |
| 1777288547 | 9.44° C | 95% | 1015.6 hPa | 0 mm | - | 21 W/m² | - |
| 1777288244 | 9.44° C | 95% | 1015.8 hPa | 0 mm | - | 16 W/m² | - |
| 1777287940 | 8.89° C | 95% | 1015.7 hPa | 0 mm | - | 11 W/m² | - |
* Rain latest hour (hover to see other rain measurements)
** Current wind speed in m/s (hover to see current wind gust speed)